This demonstration page uses our WeatherBlox Daily Observations layout. Learn more.

Left ArrowRight Arrow

39.51506, -84.39828

Hourly Observations for July 7, 2022

Temp ( °F °C ) Dew Point ( °F °C ) Humidity (%) Winds ( mph kmh ) Pressure ( in mb ) Visibility ( mi km ) Precip ( " mm )
12:15 am 00:15 Cloudy 73 23 N/A N/A Calm 29.97 1015 10 16 0.00 0.00
12:35 am 00:35 Cloudy 73 23 N/A N/A ENE 5 7 29.97 1015 10 16 0.00 0.00
12:55 am 00:55 Partly Cloudy 73 23 N/A N/A NNE 5 7 29.96 1014 7 11 0.00 0.00
1:15 am 01:15 Mostly Cloudy with Haze 73 23 N/A N/A NNW 3 6 29.97 1015 7 11 0.01 0.25
1:35 am 01:35 Cloudy 73 23 N/A N/A N 6 9 29.97 1015 10 16 0.01 0.25
1:55 am 01:55 Cloudy 73 23 73 23 100 100 N 6 9 29.97 1015 10 16 0.01 0.25
2:15 am 02:15 Cloudy 72 22 N/A N/A N 7 11 29.97 1015 10 16 0.00 0.00
2:35 am 02:35 Cloudy 72 22 N/A N/A NNE 6 9 29.97 1015 10 16 0.00 0.00
2:55 am 02:55 Partly Cloudy 72 22 N/A N/A N 6 9 29.96 1015 10 16 0.00 0.00
3:15 am 03:15 Clear 72 22 N/A N/A N 5 7 29.96 1015 10 16 0.00 0.00
3:35 am 03:35 Clear 72 22 N/A N/A N 5 7 29.96 1015 10 16 0.00 0.00
3:55 am 03:55 Clear 72 22 N/A N/A N 5 7 29.97 1015 10 16 0.00 0.00
4:15 am 04:15 Clear 70 21 N/A N/A N 5 7 29.98 1015 10 16 0.00 0.00
4:35 am 04:35 Clear 70 21 N/A N/A N 6 9 29.99 1016 10 16 0.00 0.00
4:55 am 04:55 Partly Cloudy 70 21 N/A N/A N 3 6 29.99 1016 10 16 0.00 0.00
5:15 am 05:15 Mostly Cloudy 70 21 N/A N/A N 5 7 29.99 1016 10 16 0.00 0.00
5:35 am 05:35 Partly Cloudy 70 21 N/A N/A N 6 9 29.99 1016 10 16 0.00 0.00
5:55 am 05:55 Clear 70 21 N/A N/A N 7 11 30.00 1016 10 16 0.00 0.00
6:15 am 06:15 Partly Cloudy 68 20 N/A N/A N 6 9 29.99 1016 10 16 0.00 0.00
6:35 am 06:35 Partly Cloudy 68 20 N/A N/A N 5 7 30.00 1016 10 16 0.00 0.00
6:55 am 06:55 Partly Cloudy 68 20 N/A N/A Calm 30.01 1016 7 11 0.00 0.00
7:15 am 07:15 Partly Cloudy 70 21 N/A N/A N 5 7 30.01 1016 10 16 0.00 0.00
7:35 am 07:35 Partly Cloudy 70 21.1 69 20.8 98 98 N 7 11 30.01 1016 10 16 0.00 0.00
7:55 am 07:55 Sunny 71 21.7 69 20.7 94 94 N 6 9 30.01 1016 10 16 0.00 0.00
8:15 am 08:15 Sunny 72 22.2 69 20.5 90 90 N 8 13 30.01 1016 10 16 0.00 0.00
8:35 am 08:35 Sunny 73 22.5 69 20.4 88 88 NNE 7 11 30.02 1017 10 16 0.00 0.00
8:55 am 08:55 Sunny 73 22.9 69 20.7 87 87 N 7 11 30.02 1017 10 16 0.00 0.00
9:15 am 09:15 Sunny 74 23.3 69 20.5 84 84 NE 6 9 30.02 1016 10 16 0.00 0.00
9:35 am 09:35 Sunny 75 24 70 20.9 83 83 N 5 7 30.02 1016 10 16 0.00 0.00
9:55 am 09:55 Sunny 77 24.8 69 20.8 79 79 NE 6 9 30.01 1016 10 16 0.00 0.00
10:15 am 10:15 Sunny 78 25.5 69 20.7 75 75 ENE 9 15 30.00 1016 10 16 0.00 0.00
10:35 am 10:35 Sunny 79 25.9 69 20.7 73 73 NE 8 13 30.01 1016 10 16 0.00 0.00
10:55 am 10:55 Sunny 80 26.8 69 20.6 69 69 ENE 8 13 30.01 1016 10 16 0.00 0.00
11:15 am 11:15 Sunny 81 27.1 68 20.1 66 66 E 7 11 30.01 1016 10 16 0.00 0.00
11:35 am 11:35 Sunny 80 26.8 67 19.7 65 65 NNE 6 9 30.01 1016 10 16 0.00 0.00
11:55 am 11:55 Sunny 82 27.7 67 19.5 61 61 NE 6 9 30.01 1016 10 16 0.01 0.25
12:15 pm 12:15 Sunny 81 27.2 68 19.8 64 64 NNE 8 13 30.01 1016 10 16 0.00 0.00
12:35 pm 12:35 Sunny 81 27.3 67 19.5 62 62 NE 6 9 30.00 1016 10 16 0.00 0.00
12:55 pm 12:55 Sunny 82 27.7 67 19.5 61 61 E 6 9 30.00 1016 10 16 0.00 0.00
1:15 pm 13:15 Sunny 82 27.6 68 20.1 64 64 SSE 5 7 30.01 1016 10 16 0.00 0.00
1:35 pm 13:35 Partly Cloudy 83 28.2 67 19.6 60 60 SE 6 9 30.01 1016 10 16 0.00 0.00
1:55 pm 13:55 Sunny 82 28 67 19.3 59 59 Calm 30.01 1016 10 16 0.00 0.00
2:15 pm 14:15 Sunny 84 28.7 66 19.1 56 56 NNE 6 9 29.99 1016 10 16 0.00 0.00
2:35 pm 14:35 Sunny 85 29.3 67 19.3 55 55 NNE 5 7 29.99 1016 10 16 0.00 0.00
2:55 pm 14:55 Mostly Cloudy 84 28.8 67 19.6 58 58 NE 7 11 29.98 1015 10 16 0.00 0.00
3:15 pm 15:15 Mostly Cloudy 84 28.9 67 19.6 57 57 NE 6 9 29.98 1015 10 16 0.00 0.00
3:35 pm 15:35 Sunny 85 29.3 68 19.8 57 57 NNE 5 7 29.98 1015 10 16 0.00 0.00
3:55 pm 15:55 Sunny 85 29.4 66 18.8 53 53 NNE 7 11 29.98 1015 10 16 0.00 0.00
4:15 pm 16:15 Sunny 85 29.3 67 19.3 55 55 NNE 6 9 29.97 1015 10 16 0.00 0.00
4:35 pm 16:35 Sunny 86 30.2 67 19.2 52 52 N 6 9 29.97 1015 10 16 0.00 0.00
4:55 pm 16:55 Sunny 85 29.6 66 18.9 53 53 ENE 3 6 29.96 1015 10 16 0.00 0.00
5:15 pm 17:15 Sunny 85 29.4 66 19.1 54 54 NW 5 7 29.97 1015 10 16 0.00 0.00
5:35 pm 17:35 Sunny 85 29.5 66 18.8 53 53 N 3 6 29.97 1015 10 16 0.00 0.00
5:55 pm 17:55 Sunny 85 29.6 68 20.1 57 57 NW 8 13 29.96 1015 10 16 0.00 0.00
6:15 pm 18:15 Partly Cloudy 85 29.3 68 20 57 57 NW 6 9 29.96 1015 10 16 0.00 0.00
6:35 pm 18:35 Sunny 83 28.6 69 20.4 61 61 NNW 5 7 29.96 1014 10 16 0.00 0.00
6:55 pm 18:55 Sunny 83 28.4 67 19.6 59 59 NNW 6 9 29.96 1014 10 16 0.00 0.00
7:15 pm 19:15 Sunny 82 27.8 67 19.7 61 61 Calm 29.95 1014 10 16 0.00 0.00
7:35 pm 19:35 Sunny 81 27.4 69 20.5 66 66 Calm 29.95 1014 10 16 0.00 0.00
7:55 pm 19:55 Sunny 81 27.4 69 20.3 65 65 E 7 11 29.93 1013 10 16 0.00 0.00
8:15 pm 20:15 Sunny 81 27.4 66 19.1 61 61 E 8 13 29.93 1013 10 16 0.00 0.00
8:35 pm 20:35 Sunny 81 27.3 65 18.5 59 59 E 7 11 29.93 1013 10 16 0.00 0.00
8:55 pm 20:55 Sunny 81 27.1 66 18.7 60 60 E 9 15 29.93 1013 10 16 0.00 0.00
9:15 pm 21:15 Clear 80 26.8 66 18.7 61 61 E 6 9 29.95 1014 10 16 0.00 0.00
9:35 pm 21:35 Clear 80 26.4 66 19 64 64 NNE 3 6 29.97 1015 10 16 0.00 0.00
9:55 pm 21:55 Partly Cloudy 78 25.5 68 19.9 71 71 NNE 3 6 29.97 1015 10 16 0.00 0.00
10:15 pm 22:15 Partly Cloudy 76 24.2 72 22.1 88 88 NE 3 6 29.98 1015 10 16 0.00 0.00
10:35 pm 22:35 Mostly Cloudy 76 24.5 70 21.3 82 82 NE 3 6 29.99 1016 10 16 0.00 0.00
10:55 pm 22:55 Cloudy 74 23.6 73 22.5 94 94 Calm 30.00 1016 10 16 0.00 0.00
11:15 pm 23:15 Mostly Cloudy 74 23.2 72 22.4 95 95 N 5 7 30.00 1016 10 16 0.00 0.00
11:35 pm 23:35 Clear 74 23.3 71 21.7 91 91 N 5 7 29.99 1015 10 16 0.00 0.00
11:55 pm 23:55 Clear 74 23.2 71 21.4 90 90 NNW 5 7 30.00 1016 10 16 0.00 0.00

Powered by AerisWeather